Location: Bucquoy
(50.1391°N, 2.7097°E)
Time: 03:54:36
(UTC+00:00)

EO 1 Delta rocket - Pass Details

Date: 06 May 2021
Orbit: 698 x 1791 km, 95.4° (Epoch: 22 June)

Event Time Altitude Azimuth Distance (km) Brightness Sun altitude
Exits shadow 00:20:48 56° 157° (SSE) 900 4.0 -22.9°
Maximum altitude 00:21:53 83° 78° (ENE) 783 3.9 -22.8°
Drops below altitude 10° 00:27:23 10° 351° (N) 2,557 7.7 -22.7°
Sets 00:30:03 0° 351° (N) 3,642 8.7 -22.6°
